Flag for Germany Weather past 2 weeks in Wiesbaden, Hesse, Germany

Now
42 °F

Clear.


Feels Like: 38 °F
Forecast: 45 / 55 °F
Wind: 6 mph from East

Location: Wiesbaden Airport


UV Index: 3 (Moderate)

Visibility: N/A


Pressure: 30.35 "Hg

Humidity: 64%

Dew point: 30 °F

Location of WiesbadenLocation

Historic Weather in Wiesbaden

°F

Wiesbaden temperature yesterday

Maximum temperature yesterday: 59 °F (at 4:58 PM)
Minimum temperature yesterday: 32 °F (at 3:58 AM)
Average temperature yesterday: 47 °F

Past Weeks' High & Low Weather Summary

 TemperatureHumidityPressure
High72 °F (Apr 4, 4:58 PM)100% (Apr 6, 3:58 AM)30.45 "Hg (Apr 6, 3:58 AM)
Low32 °F (Apr 16, 3:58 AM)36% (Apr 16, 4:58 PM)29.66 "Hg (Apr 3, 2:58 AM)
Average54 °F66%30.04 "Hg
* Reported Apr 2 1:58 AM — Apr 17 1:58 AM, Wiesbaden, Weather by CustomWeather, © 2014

Note: Actual official high and low records may vary slightly from our data, if they occured in-between our weather recording intervals... More about our weather records

Advertising

Historic Weather Conditions — Data for Previous 24 hours

 ConditionsComfort  
Time TempWeatherWind HumidityBarometerVisibility
1:58 AM
Apr 17
43 °FClear.3 mph61%30.36 "HgN/A
12:58 AM42 °FClear.6 mph65%30.37 "HgN/A
11:58 PM
Apr 16
47 °FClear.6 mph55%30.37 "HgN/A
10:58 PM46 °FClear.6 mph57%30.37 "HgN/A
9:58 PM49 °FClear.6 mph48%30.38 "HgN/A
8:58 PM51 °FSunny.6 mph46%30.38 "HgN/A
7:58 PM54 °FSunny.6 mph40%30.38 "HgN/A
6:58 PM57 °FScattered clouds.9 mph36%30.37 "HgN/A
5:58 PM57 °FScattered clouds.7 mph39%30.38 "HgN/A
4:58 PM59 °FScattered clouds.5 mph36%30.39 "HgN/A
3:58 PM57 °FSunny.3 mph40%30.40 "HgN/A
2:58 PM56 °FPassing clouds.9 mph43%30.42 "HgN/A
1:58 PM55 °FPartly sunny.8 mph40%30.42 "HgN/A
12:58 PM53 °FPassing clouds.8 mph48%30.44 "HgN/A
11:58 AM52 °FPassing clouds.9 mph54%30.45 "HgN/A
10:58 AM48 °FSunny.8 mph62%30.45 "HgN/A
9:58 AM46 °FSunny.8 mph66%30.45 "HgN/A
8:58 AM44 °FSunny.1 mph70%30.44 "HgN/A
7:58 AM39 °FSunny.3 mph81%30.43 "HgN/A
6:58 AM35 °FClear.1 mph84%30.41 "HgN/A
5:58 AM34 °FClear.5 mph85%30.41 "HgN/A
4:58 AM34 °FClear.5 mph86%30.40 "HgN/A
3:58 AM32 °FClear.No wind87%30.39 "HgN/A
Weather by CustomWeather, © 2014

See weather overview